| time (UTC) | temp F | wind direction | speed MPH | gust MPH | rain 1hr in | rain 24hr in | rain mn in | humidity % | barometer mb |
| 20260904144029 | 81 | 103 | 3.0 | 7.0 | 0.00 | 0.26 | 0.06 | 93 | 1012.4 |
| 20260904143046 | 79 | 66 | 1.0 | 3.0 | 0.00 | 0.27 | 0.06 | 93 | 1012.3 |
| 20260904142022 | 77 | 58 | 1.0 | 3.0 | 0.00 | 0.27 | 0.06 | 93 | 1012.1 |
| 20260904141019 | 75 | 0.0 | 0.0 | 0.00 | 0.28 | 0.06 | 93 | 1012.4 | |
| 20260904140035 | 74 | 171 | 0.0 | 1.0 | 0.00 | 0.28 | 0.06 | 93 | 1012.2 |
| 20260904135031 | 74 | 0.0 | 0.0 | 0.00 | 0.30 | 0.06 | 93 | 1012.1 | |
| 20260904134028 | 74 | 215 | 1.0 | 2.0 | 0.00 | 0.31 | 0.06 | 93 | 1012.2 |
| 20260904133025 | 74 | 0.0 | 0.0 | 0.00 | 0.34 | 0.06 | 93 | 1012.2 | |
| 20260904132023 | 74 | 262 | 0.0 | 3.0 | 0.00 | 0.36 | 0.06 | 93 | 1012.2 |
| 20260904131035 | 73 | 123 | 1.0 | 3.0 | 0.00 | 0.38 | 0.06 | 93 | 1012.1 |
| 20260904130031 | 73 | 0.0 | 0.0 | 0.00 | 0.40 | 0.06 | 93 | 1012.0 | |
| 20260904125028 | 72 | 180 | 1.0 | 2.0 | 0.00 | 0.42 | 0.06 | 93 | 1011.9 |
| 20260904124024 | 72 | 143 | 1.0 | 2.0 | 0.00 | 0.44 | 0.06 | 93 | 1011.7 |
| 20260904123021 | 71 | 237 | 1.0 | 2.0 | 0.00 | 0.45 | 0.06 | 93 | 1011.4 |
| 20260904122017 | 71 | 0.0 | 0.0 | 0.00 | 0.46 | 0.06 | 93 | 1011.1 | |
| 20260904121034 | 71 | 263 | 0.0 | 2.0 | 0.00 | 0.46 | 0.06 | 93 | 1011.3 |
| 20260904120030 | 71 | 111 | 1.0 | 2.0 | 0.01 | 0.46 | 0.06 | 93 | 1011.2 |
| 20260904115027 | 71 | 0.0 | 0.0 | 0.05 | 0.46 | 0.06 | 93 | 1011.1 | |
| 20260904114025 | 71 | 0.0 | 0.0 | 0.05 | 0.52 | 0.05 | 93 | 1011.1 | |
| 20260904113020 | 71 | 0.0 | 0.0 | 0.05 | 0.52 | 0.05 | 93 | 1010.9 | |
| 20260904112016 | 71 | 0.0 | 0.0 | 0.05 | 0.52 | 0.05 | 93 | 1010.6 | |
| 20260904111033 | 71 | 334 | 1.0 | 3.0 | 0.05 | 0.52 | 0.05 | 93 | 1010.7 |
| 20260904110030 | 70 | 117 | 1.0 | 3.0 | 0.04 | 0.51 | 0.04 | 93 | 1010.9 |
| 20260904105046 | 69 | 138 | 1.0 | 3.0 | 0.00 | 0.47 | 0.00 | 93 | 1010.8 |
| 20260904104024 | 69 | 0.0 | 0.0 | 0.00 | 0.47 | 0.00 | 93 | 1010.7 | |
| 20260904103021 | 69 | 0.0 | 0.0 | 0.00 | 0.47 | 0.00 | 92 | 1010.6 | |
| 20260904102036 | 69 | 0.0 | 0.0 | 0.00 | 0.47 | 0.00 | 92 | 1010.6 | |
| 20260904101034 | 70 | 0.0 | 0.0 | 0.00 | 0.47 | 0.00 | 92 | 1010.6 | |
| 20260904100028 | 70 | 0.0 | 0.0 | 0.00 | 0.47 | 0.00 | 92 | 1010.6 | |
| 20260904095025 | 70 | 0.0 | 0.0 | 0.00 | 0.47 | 0.00 | 92 | 1010.7 | |
| 20260904094041 | 70 | 0.0 | 0.0 | 0.00 | 0.47 | 0.00 | 92 | 1010.8 | |
| 20260904093018 | 70 | 0.0 | 0.0 | 0.00 | 0.47 | 0.00 | 92 | 1010.9 | |
| 20260904092036 | 70 | 0.0 | 0.0 | 0.00 | 0.47 | 0.00 | 92 | 1010.9 | |
| 20260904091031 | 70 | 0.0 | 0.0 | 0.00 | 0.47 | 0.00 | 92 | 1010.9 | |
| 20260904090029 | 70 | 0.0 | 0.0 | 0.00 | 0.47 | 0.00 | 92 | 1010.8 | |
| 20260904085024 | 71 | 0.0 | 0.0 | 0.00 | 0.47 | 0.00 | 92 | 1010.8 | |
| 20260904084021 | 72 | 0.0 | 0.0 | 0.00 | 0.47 | 0.00 | 92 | 1010.8 | |
| 20260904083017 | 72 | 0.0 | 0.0 | 0.00 | 0.46 | 0.00 | 92 | 1010.7 | |
| 20260904082033 | 73 | 0.0 | 0.0 | 0.00 | 0.46 | 0.00 | 92 | 1010.6 | |
| 20260904081030 | 74 | 210 | 0.0 | 2.0 | 0.00 | 0.46 | 0.00 | 92 | 1010.6 |
| 20260904080027 | 74 | 83 | 2.0 | 3.0 | 0.00 | 0.46 | 0.00 | 92 | 1010.4 |
| 20260904075023 | 74 | 127 | 1.0 | 3.0 | 0.00 | 0.46 | 0.00 | 92 | 1010.3 |
| 20260904074020 | 73 | 121 | 1.0 | 7.0 | 0.00 | 0.46 | 0.00 | 92 | 1010.3 |
| 20260904073036 | 71 | 104 | 1.0 | 3.0 | 0.00 | 0.46 | 0.00 | 93 | 1010.3 |
| 20260904072033 | 70 | 113 | 0.0 | 2.0 | 0.00 | 0.46 | 0.00 | 92 | 1010.4 |
| 20260904071030 | 70 | 108 | 0.0 | 1.0 | 0.00 | 0.46 | 0.00 | 92 | 1010.2 |
| 20260904070048 | 69 | 80 | 1.0 | 3.0 | 0.00 | 0.46 | 0.00 | 92 | 1010.3 |
| 20260904065023 | 70 | 0.0 | 0.0 | 0.00 | 0.46 | 0.00 | 92 | 1010.4 | |
| 20260904064020 | 70 | 0.0 | 0.0 | 0.00 | 0.46 | 0.00 | 92 | 1010.5 | |
| 20260904063016 | 71 | 0.0 | 0.0 | 0.00 | 0.46 | 0.00 | 92 | 1010.6 | |
| 20260904062034 | 72 | 0.0 | 0.0 | 0.00 | 0.46 | 0.00 | 92 | 1010.7 | |
| 20260904061029 | 72 | 0.0 | 0.0 | 0.00 | 0.46 | 0.00 | 92 | 1010.8 | |
| 20260904060026 | 73 | 0.0 | 0.0 | 0.00 | 0.46 | 0.00 | 92 | 1010.9 | |
| 20260904055022 | 73 | 0.0 | 0.0 | 0.00 | 0.46 | 0.00 | 91 | 1011.1 | |
| 20260904054019 | 73 | 83 | 1.0 | 2.0 | 0.00 | 0.46 | 0.00 | 91 | 1011.1 |
| 20260904053055 | 73 | 134 | 0.0 | 1.0 | 0.00 | 0.46 | 0.00 | 91 | 1011.3 |
| 20260904052032 | 73 | 75 | 1.0 | 2.0 | 0.00 | 0.46 | 0.00 | 91 | 1011.4 |
| 20260904051029 | 73 | 109 | 0.0 | 1.0 | 0.00 | 0.46 | 0.00 | 91 | 1011.8 |
| 20260904050027 | 73 | 281 | 2.0 | 3.0 | 0.00 | 0.46 | 0.46 | 91 | 1011.6 |
| 20260904045041 | 73 | 122 | 0.0 | 1.0 | 0.00 | 0.46 | 0.46 | 91 | 1011.4 |
| 20260904044018 | 72 | 112 | 1.0 | 6.0 | 0.00 | 0.46 | 0.46 | 91 | 1011.3 |
| 20260904043034 | 71 | 0.0 | 0.0 | 0.00 | 0.46 | 0.46 | 91 | 1011.4 | |
| 20260904042031 | 71 | 230 | 1.0 | 2.0 | 0.00 | 0.46 | 0.46 | 91 | 1011.6 |
| 20260904041027 | 71 | 79 | 1.0 | 2.0 | 0.00 | 0.46 | 0.46 | 91 | 1011.8 |
| 20260904040024 | 70 | 190 | 0.0 | 1.0 | 0.00 | 0.46 | 0.46 | 91 | 1011.9 |
| 20260904035020 | 70 | 156 | 1.0 | 2.0 | 0.00 | 0.46 | 0.46 | 91 | 1011.8 |
| 20260904034017 | 70 | 0.0 | 0.0 | 0.00 | 0.46 | 0.46 | 90 | 1011.8 | |
| 20260904033054 | 70 | 0.0 | 0.0 | 0.00 | 0.46 | 0.46 | 90 | 1012.0 | |
| 20260904032028 | 70 | 0.0 | 0.0 | 0.00 | 0.46 | 0.46 | 90 | 1011.9 | |
| 20260904031021 | 70 | 0.0 | 0.0 | 0.00 | 0.46 | 0.46 | 90 | 1012.0 | |
| 20260904030016 | 70 | 91 | 0.0 | 1.0 | 0.00 | 0.46 | 0.46 | 90 | 1012.1 |
| 20260904025030 | 70 | 0.0 | 0.0 | 0.00 | 0.46 | 0.46 | 90 | 1011.9 | |
| 20260904024025 | 70 | 0.0 | 0.0 | 0.00 | 0.46 | 0.46 | 90 | 1011.9 | |
| 20260904023019 | 70 | 0.0 | 0.0 | 0.00 | 0.46 | 0.46 | 90 | 1011.8 | |
| 20260904022033 | 70 | 0.0 | 0.0 | 0.00 | 0.46 | 0.46 | 89 | 1011.8 | |
| 20260904021028 | 70 | 0.0 | 0.0 | 0.00 | 0.46 | 0.46 | 89 | 1011.9 | |
| 20260904020042 | 70 | 0.0 | 0.0 | 0.00 | 0.46 | 0.46 | 89 | 1011.9 | |
| 20260904015035 | 70 | 91 | 0.0 | 1.0 | 0.00 | 0.46 | 0.46 | 89 | 1011.6 |
| 20260904014030 | 71 | 91 | 0.0 | 1.0 | 0.00 | 0.46 | 0.46 | 89 | 1011.5 |
| 20260904013046 | 71 | 91 | 0.0 | 1.0 | 0.00 | 0.46 | 0.46 | 89 | 1011.2 |
| 20260904012020 | 72 | 0.0 | 0.0 | 0.00 | 0.46 | 0.46 | 88 | 1011.1 | |
| 20260904011031 | 73 | 91 | 0.0 | 2.0 | 0.00 | 0.46 | 0.46 | 88 | 1011.0 |
| 20260904010024 | 74 | 0.0 | 0.0 | 0.00 | 0.46 | 0.46 | 88 | 1011.0 | |
| 20260904005018 | 75 | 68 | 1.0 | 2.0 | 0.00 | 0.46 | 0.46 | 88 | 1010.8 |
| 20260904004032 | 76 | 59 | 1.0 | 2.0 | 0.00 | 0.46 | 0.46 | 88 | 1011.0 |
| 20260904003028 | 76 | 58 | 1.0 | 2.0 | 0.00 | 0.46 | 0.46 | 87 | 1011.1 |
| 20260904002022 | 78 | 58 | 1.0 | 2.0 | 0.00 | 0.46 | 0.46 | 87 | 1011.1 |
| 20260904001017 | 79 | 58 | 1.0 | 1.0 | 0.00 | 0.46 | 0.46 | 87 | 1010.9 |
| 20260904000031 | 80 | 57 | 1.0 | 2.0 | 0.00 | 0.46 | 0.46 | 86 | 1011.1 |
| 20260903235025 | 80 | 57 | 0.0 | 1.0 | 0.00 | 0.46 | 0.46 | 86 | 1011.0 |
| 20260903234018 | 81 | 57 | 0.0 | 2.0 | 0.00 | 0.46 | 0.46 | 85 | 1011.0 |
| 20260903233033 | 82 | 81 | 0.0 | 1.0 | 0.00 | 0.46 | 0.46 | 85 | 1011.1 |
| 20260903232045 | 82 | 100 | 1.0 | 3.0 | 0.00 | 0.46 | 0.46 | 85 | 1010.9 |
| 20260903231021 | 82 | 93 | 0.0 | 2.0 | 0.00 | 0.46 | 0.46 | 85 | 1011.3 |
| 20260903230036 | 83 | 103 | 1.0 | 4.0 | 0.00 | 0.46 | 0.46 | 85 | 1011.2 |
| 20260903225033 | 83 | 88 | 1.0 | 4.0 | 0.00 | 0.46 | 0.46 | 85 | 1011.1 |
| 20260903224027 | 84 | 77 | 2.0 | 7.0 | 0.00 | 0.46 | 0.46 | 85 | 1011.0 |
| 20260903223044 | 84 | 77 | 1.0 | 4.0 | 0.00 | 0.46 | 0.46 | 85 | 1011.0 |
| 20260903222057 | 84 | 47 | 1.0 | 3.0 | 0.00 | 0.46 | 0.46 | 86 | 1011.2 |
| 20260903221027 | 84 | 78 | 1.0 | 2.0 | 0.00 | 0.46 | 0.46 | 86 | 1011.3 |
| 20260903220023 | 83 | 68 | 0.0 | 1.0 | 0.00 | 0.46 | 0.46 | 86 | 1011.3 |
| 20260903215039 | 83 | 68 | 0.0 | 1.0 | 0.00 | 0.46 | 0.46 | 86 | 1011.4 |
| 20260903214036 | 84 | 84 | 1.0 | 4.0 | 0.00 | 0.46 | 0.46 | 86 | 1011.1 |
| 20260903213033 | 84 | 103 | 2.0 | 7.0 | 0.00 | 0.46 | 0.46 | 85 | 1011.5 |
| 20260903212028 | 85 | 102 | 2.0 | 7.0 | 0.00 | 0.46 | 0.46 | 87 | 1011.6 |
| 20260903211024 | 83 | 62 | 2.0 | 4.0 | 0.00 | 0.46 | 0.46 | 87 | 1011.5 |
| 20260903210018 | 83 | 82 | 2.0 | 3.0 | 0.00 | 0.46 | 0.46 | 88 | 1011.6 |
| 20260903205032 | 82 | 176 | 1.0 | 4.0 | 0.00 | 0.46 | 0.46 | 88 | 1011.9 |
| 20260903204047 | 82 | 184 | 1.0 | 3.0 | 0.00 | 0.46 | 0.46 | 89 | 1011.7 |
| 20260903203022 | 82 | 195 | 0.0 | 2.0 | 0.00 | 0.46 | 0.46 | 89 | 1011.7 |
| 20260903202036 | 82 | 185 | 0.0 | 1.0 | 0.00 | 0.46 | 0.46 | 89 | 1011.9 |
| 20260903201030 | 82 | 108 | 1.0 | 3.0 | 0.00 | 0.46 | 0.46 | 89 | 1012.1 |
| 20260903200044 | 82 | 209 | 0.0 | 2.0 | 0.00 | 0.46 | 0.46 | 90 | 1012.3 |
| 20260903195016 | 82 | 209 | 1.0 | 2.0 | 0.00 | 0.46 | 0.46 | 90 | 1012.4 |
| 20260903194029 | 82 | 33 | 0.0 | 1.0 | 0.00 | 0.46 | 0.46 | 90 | 1012.2 |
| 20260903193021 | 82 | 310 | 1.0 | 3.0 | 0.00 | 0.46 | 0.46 | 90 | 1012.2 |
| 20260903192034 | 82 | 281 | 2.0 | 4.0 | 0.00 | 0.46 | 0.46 | 90 | 1012.1 |
| 20260903191030 | 81 | 301 | 1.0 | 2.0 | 0.00 | 0.46 | 0.46 | 91 | 1012.0 |
| 20260903190024 | 81 | 295 | 2.0 | 4.0 | 0.00 | 0.46 | 0.46 | 91 | 1011.7 |
| 20260903185019 | 80 | 269 | 1.0 | 3.0 | 0.00 | 0.46 | 0.46 | 91 | 1011.9 |
| 20260903184033 | 79 | 210 | 1.0 | 2.0 | 0.00 | 0.46 | 0.46 | 91 | 1012.0 |
| 20260903183029 | 78 | 276 | 1.0 | 3.0 | 0.00 | 0.46 | 0.46 | 91 | 1012.2 |
| 20260903182022 | 77 | 61 | 1.0 | 4.0 | 0.00 | 0.46 | 0.46 | 92 | 1012.2 |
| 20260903181038 | 76 | 298 | 1.0 | 3.0 | 0.00 | 0.46 | 0.46 | 92 | 1012.1 |
| 20260903180033 | 76 | 292 | 0.0 | 1.0 | 0.00 | 0.46 | 0.46 | 92 | 1012.2 |
| 20260903175027 | 76 | 291 | 0.0 | 1.0 | 0.00 | 0.46 | 0.46 | 92 | 1012.1 |
| 20260903174021 | 76 | 288 | 2.0 | 3.0 | 0.00 | 0.46 | 0.46 | 92 | 1012.1 |
| 20260903173055 | 74 | 307 | 0.0 | 2.0 | 0.02 | 0.46 | 0.46 | 92 | 1012.2 |
| 20260903172028 | 74 | 0.0 | 0.0 | 0.03 | 0.46 | 0.46 | 92 | 1012.6 | |
| 20260903171024 | 73 | 88 | 0.0 | 1.0 | 0.05 | 0.46 | 0.46 | 92 | 1012.6 |
| 20260903170020 | 72 | 288 | 1.0 | 3.0 | 0.09 | 0.46 | 0.46 | 92 | 1013.1 |
| 20260903165031 | 72 | 218 | 2.0 | 4.0 | 0.11 | 0.46 | 0.46 | 92 | 1013.0 |
| 20260903164024 | 71 | 153 | 0.0 | 1.0 | 0.11 | 0.46 | 0.46 | 92 | 1012.5 |
| 20260903163019 | 71 | 110 | 1.0 | 3.0 | 0.11 | 0.45 | 0.45 | 92 | 1013.3 |
| 20260903162032 | 71 | 176 | 1.0 | 3.0 | 0.11 | 0.43 | 0.43 | 92 | 1013.5 |
| 20260903161025 | 71 | 135 | 1.0 | 3.0 | 0.14 | 0.42 | 0.42 | 92 | 1013.4 |
| 20260903160019 | 72 | 96 | 1.0 | 2.0 | 0.11 | 0.37 | 0.37 | 92 | 1013.1 |
| 20260903155033 | 71 | 297 | 1.0 | 3.0 | 0.09 | 0.35 | 0.35 | 92 | 1012.8 |
| 20260903154021 | 71 | 257 | 1.0 | 3.0 | 0.09 | 0.35 | 0.35 | 92 | 1012.4 |
| 20260903153038 | 71 | 103 | 2.0 | 6.0 | 0.08 | 0.33 | 0.33 | 92 | 1012.8 |
| 20260903152031 | 71 | 122 | 2.0 | 3.0 | 0.08 | 0.33 | 0.33 | 92 | 1013.6 |
| 20260903151022 | 71 | 254 | 0.0 | 2.0 | 0.04 | 0.28 | 0.28 | 92 | 1013.8 |
| 20260903150033 | 71 | 210 | 3.0 | 6.0 | 0.03 | 0.26 | 0.26 | 92 | 1013.0 |
| 20260903145025 | 71 | 146 | 1.0 | 2.0 | 0.04 | 0.26 | 0.26 | 92 | 1012.7 |